Location: Campillo
(40.8621°N, 4.2488°W)
Time: 16:57:19
(UTC+00:00)

Cosmos 1777 Rocket - Pass Details

Date: 04 October 2021
Orbit: 759 x 775 km, 74.0° (Epoch: 23 October)

Event Time Altitude Azimuth Distance (km) Brightness Sun altitude
Rises 19:25:53 0° 253° (WSW) 3,224 8.4 -18.2°
Reaches altitude 10° 19:29:47 10° 283° (WNW) 2,300 7.7 -18.9°
Maximum altitude 19:31:57 12° 308° (NW) 2,132 7.2 -19.3°
Drops below altitude 10° 19:34:07 10° 332° (NNW) 2,301 7.0 -19.7°
Sets 19:38:03 0° 2° (N) 3,230 7.4 -20.4°
